GW1728 Weather Reports


Display with metric or nautical units.
time (UTC)temp
F
wind
direction
speed
MPH
gust
MPH
rain 1hr
in
rain 24hr
in
rain mn
in
humidity
%
barometer
mb
20260510011038 68 256 1.0 1.0 0.00 0.00 0.00 36 1018.2
20260510010535 68 234 0.0 0.0 0.00 0.00 0.00 37 1018.3
20260510010032 68 212 1.0 1.0 0.00 0.00 0.00 37 1018.2
20260510005527 68 246 4.0 5.0 0.00 0.00 0.00 37 1018.2
20260510005026 67 272 2.0 2.0 0.00 0.00 0.00 38 1018.3
20260510004523 67 274 1.0 1.0 0.00 0.00 0.00 37 1018.3
20260510004021 67 181 5.0 6.0 0.00 0.00 0.00 38 1018.5
20260510003517 67 210 2.0 2.0 0.00 0.00 0.00 38 1018.3
20260510003013 67 222 2.0 2.0 0.00 0.00 0.00 38 1018.3
20260510002508 68 233 3.0 3.0 0.00 0.00 0.00 38 1018.5
20260510002006 67 217 3.0 3.0 0.00 0.00 0.00 38 1018.3
20260510001503 67 225 2.0 2.0 0.00 0.00 0.00 38 1018.4
20260510001001 67 206 4.0 5.0 0.00 0.00 0.00 38 1018.5
20260510000456 67 234 4.0 6.0 0.00 0.00 0.00 40 1018.5
20260509235953 67 218 3.0 3.0 0.00 0.00 0.00 37 1018.5
20260509235450 67 194 3.0 3.0 0.00 0.00 0.00 37 1018.4
20260509234946 67 237 6.0 7.0 0.00 0.00 0.00 38 1018.3
20260509234443 67 225 4.0 6.0 0.00 0.00 0.00 38 1018.3
20260509233941 67 197 2.0 2.0 0.00 0.00 0.00 38 1018.5
20260509233438 67 249 2.0 2.0 0.00 0.00 0.00 38 1018.3
20260509232934 66 235 1.0 1.0 0.00 0.00 0.00 37 1018.3
20260509232432 66 250 2.0 2.0 0.00 0.00 0.00 37 1018.3
20260509231927 66 230 3.0 3.0 0.00 0.00 0.00 38 1018.5
20260509231424 66 224 2.0 2.0 0.00 0.00 0.00 38 1018.5
20260509230923 66 253 3.0 5.0 0.00 0.00 0.00 38 1018.4
20260509230419 66 234 6.0 7.0 0.00 0.00 0.00 39 1018.5
20260509225914 66 198 4.0 7.0 0.00 0.00 0.00 39 1018.4
20260509225411 66 170 3.0 5.0 0.00 0.00 0.00 38 1018.4
20260509224907 66 199 4.0 5.0 0.00 0.00 0.00 38 1018.4
20260509224402 66 225 3.0 3.0 0.00 0.00 0.00 38 1018.6
20260509223900 66 229 5.0 6.0 0.00 0.00 0.00 38 1018.7
20260509223351 66 235 6.0 7.0 0.00 0.00 0.00 38 1018.5
20260509222848 66 207 4.0 5.0 0.00 0.00 0.00 39 1018.5
20260509222343 68 233 9.0 10.0 0.00 0.00 0.00 39 1018.5
20260509221838 67 222 8.0 9.0 0.00 0.00 0.00 38 1018.5
20260509221336 67 184 1.0 2.0 0.00 0.00 0.00 38 1018.7
20260509220831 66 244 0.0 0.0 0.00 0.00 0.00 40 1018.7
20260509220328 66 245 6.0 7.0 0.00 0.00 0.00 40 1018.7
20260509215823 66 222 2.0 2.0 0.00 0.00 0.00 40 1018.7
20260509215320 66 227 3.0 3.0 0.00 0.00 0.00 41 1018.9
20260509214817 66 244 7.0 9.0 0.00 0.00 0.00 40 1018.9
20260509214314 68 216 9.0 11.0 0.00 0.00 0.00 40 1018.8
20260509213811 67 200 3.0 5.0 0.00 0.00 0.00 40 1018.7
20260509213307 66 68 3.0 3.0 0.00 0.00 0.00 40 1018.9
20260509212804 65 174 5.0 6.0 0.00 0.00 0.00 41 1019.0
20260509212305 65 224 5.0 6.0 0.00 0.00 0.00 42 1019.2
20260509211757 66 222 8.0 8.0 0.00 0.00 0.00 40 1019.2
20260509211253 66 243 7.0 8.0 0.00 0.00 0.00 40 1019.0
20260509210750 67 162 4.0 5.0 0.00 0.00 0.00 40 1019.1
20260509210248 66 160 4.0 5.0 0.00 0.00 0.00 39 1019.1
20260509205747 65 237 6.0 7.0 0.00 0.00 0.00 41 1019.1
20260509205242 65 195 2.0 2.0 0.00 0.00 0.00 40 1019.0
20260509204738 66 193 4.0 6.0 0.00 0.00 0.00 40 1019.2
20260509204235 68 224 7.0 10.0 0.00 0.00 0.00 37 1019.1
20260509203731 67 313 3.0 5.0 0.00 0.00 0.00 39 1019.1
20260509203229 64 235 3.0 3.0 0.00 0.00 0.00 42 1019.1
20260509202725 65 241 5.0 7.0 0.00 0.00 0.00 42 1019.0
20260509202221 66 169 7.0 8.0 0.00 0.00 0.00 40 1019.1
20260509201715 67 225 7.0 9.0 0.00 0.00 0.00 38 1018.8
20260509201212 65 236 7.0 9.0 0.00 0.00 0.00 42 1019.0
20260509200709 66 176 5.0 5.0 0.00 0.00 0.00 39 1019.2
20260509200203 67 247 3.0 3.0 0.00 0.00 0.00 37 1019.0
20260509195659 66 246 4.0 6.0 0.00 0.00 0.00 40 1019.1
20260509195155 66 239 5.0 6.0 0.00 0.00 0.00 40 1019.1
20260509194649 63 223 5.0 6.0 0.00 0.00 0.00 43 1019.1
20260509194146 63 204 4.0 5.0 0.00 0.00 0.00 42 1019.2
20260509193641 63 215 5.0 6.0 0.00 0.00 0.00 43 1019.1
20260509193132 63 225 3.0 3.0 0.00 0.00 0.00 43 1019.4
20260509192629 62 211 7.0 8.0 0.00 0.00 0.00 44 1019.4
20260509192123 62 216 3.0 3.0 0.00 0.00 0.00 44 1019.4
20260509191618 62 235 1.0 1.0 0.00 0.00 0.00 43 1019.4
20260509191115 62 266 1.0 1.0 0.00 0.00 0.00 42 1019.2
20260509190611 62 129 0.0 1.0 0.00 0.00 0.00 42 1019.2
20260509190109 62 227 2.0 2.0 0.00 0.00 0.00 42 1019.4
20260509185606 62 170 0.0 0.0 0.00 0.00 0.00 41 1019.5
20260509185102 62 145 1.0 2.0 0.00 0.00 0.00 42 1019.4
20260509184601 62 214 0.0 0.0 0.00 0.00 0.00 42 1019.4
20260509184057 63 268 2.0 2.0 0.00 0.00 0.00 41 1019.2
20260509183552 62 210 0.0 0.0 0.00 0.00 0.00 41 1019.4
20260509183048 62 208 2.0 2.0 0.00 0.00 0.00 42 1019.2
20260509182545 62 228 2.0 2.0 0.00 0.00 0.00 41 1019.1
20260509182042 62 354 2.0 2.0 0.00 0.00 0.00 42 1019.1
20260509181540 62 324 2.0 2.0 0.00 0.00 0.00 41 1019.0
20260509181037 62 344 2.0 2.0 0.00 0.00 0.00 42 1019.1
20260509180533 62 299 1.0 1.0 0.00 0.00 0.00 42 1019.1
20260509180030 61 355 3.0 3.0 0.00 0.00 0.00 42 1019.0
20260509175525 61 307 1.0 1.0 0.00 0.00 0.00 43 1019.1
20260509175022 61 314 1.0 1.0 0.00 0.00 0.00 43 1018.9
20260509174519 62 2 3.0 5.0 0.00 0.00 0.00 42 1019.0
20260509174014 61 12 4.0 6.0 0.00 0.00 0.00 42 1018.9
20260509173509 62 14 3.0 3.0 0.00 0.00 0.00 42 1018.9
20260509173005 62 221 0.0 0.0 0.00 0.00 0.00 41 1018.9
20260509172503 61 232 0.0 0.0 0.00 0.00 0.00 43 1018.9
20260509171958 61 176 3.0 3.0 0.00 0.00 0.00 43 1018.7
20260509171454 61 173 5.0 6.0 0.00 0.00 0.00 42 1018.7
20260509170951 61 154 6.0 7.0 0.00 0.00 0.00 40 1018.7
20260509170446 61 136 4.0 5.0 0.00 0.00 0.00 40 1018.7
20260509165942 63 210 6.0 7.0 0.00 0.00 0.00 41 1018.5
20260509165441 63 266 1.0 1.0 0.00 0.00 0.00 43 1018.7
20260509164937 62 221 3.0 5.0 0.00 0.00 0.00 46 1018.7
20260509164433 63 355 4.0 5.0 0.00 0.00 0.00 43 1018.6
20260509163929 63 4 3.0 3.0 0.00 0.00 0.00 45 1018.7
20260509163427 63 292 3.0 5.0 0.00 0.00 0.00 46 1018.4
20260509162926 62 275 2.0 3.0 0.00 0.00 0.00 47 1018.6
20260509162425 62 302 1.0 1.0 0.00 0.00 0.00 46 1018.5
20260509161920 62 291 3.0 3.0 0.00 0.00 0.00 47 1018.6
20260509161417 62 312 2.0 3.0 0.00 0.00 0.00 47 1018.5
20260509160912 62 340 4.0 6.0 0.00 0.00 0.00 47 1018.8
20260509160408 62 259 0.0 0.0 0.00 0.00 0.00 49 1018.5
20260509155904 61 256 0.0 1.0 0.00 0.00 0.00 50 1018.4
20260509155401 61 285 1.0 2.0 0.00 0.00 0.00 50 1018.6
20260509154857 61 273 0.0 1.0 0.00 0.00 0.00 49 1018.5
20260509154354 61 265 1.0 1.0 0.00 0.00 0.00 52 1018.3
20260509153850 61 249 2.0 3.0 0.00 0.00 0.00 51 1018.3
20260509153347 61 339 3.0 5.0 0.00 0.00 0.00 51 1018.2
20260509152844 60 291 2.0 2.0 0.00 0.00 0.00 54 1018.3
20260509152340 59 334 2.0 3.0 0.00 0.00 0.00 54 1018.3
20260509151838 59 243 1.0 2.0 0.00 0.00 0.00 54 1018.2
20260509151333 60 304 1.0 1.0 0.00 0.00 0.00 54 1018.3
20260509150832 59 350 2.0 2.0 0.00 0.00 0.00 53 1018.2
20260509150329 59 304 1.0 1.0 0.00 0.00 0.00 56 1017.9
20260509145827 59 277 1.0 1.0 0.00 0.00 0.00 57 1018.0
20260509145321 59 312 2.0 2.0 0.00 0.00 0.00 56 1017.7
20260509144818 58 324 2.0 2.0 0.00 0.00 0.00 58 1017.8
20260509144315 57 234 0.0 0.0 0.00 0.00 0.00 60 1018.3
20260509143812 57 246 0.0 0.0 0.00 0.00 0.00 59 1017.9
20260509143310 57 293 1.0 1.0 0.00 0.00 0.00 60 1017.9
20260509142806 57 284 0.0 0.0 0.00 0.00 0.00 63 1017.9
20260509142302 57 345 4.0 5.0 0.00 0.00 0.00 62 1017.8
20260509141757 57 314 0.0 0.0 0.00 0.00 0.00 62 1017.8
20260509141255 57 272 0.0 1.0 0.00 0.00 0.00 61 1017.7
20260509140751 57 0 2.0 3.0 0.00 0.00 0.00 60 1017.8
20260509140248 58 252 0.0 0.0 0.00 0.00 0.00 60 1017.7
20260509135746 57 250 1.0 1.0 0.00 0.00 0.00 61 1017.5
20260509135244 57 270 1.0 2.0 0.00 0.00 0.00 62 1017.4
20260509134740 56 263 0.0 0.0 0.00 0.00 0.00 65 1017.3
20260509134238 55 270 0.0 0.0 0.00 0.00 0.00 66 1017.3
20260509133735 55 257 0.0 0.0 0.00 0.00 0.00 68 1017.5
20260509133231 54 258 0.0 0.0 0.00 0.00 0.00 68 1017.3
20260509132730 54 252 0.0 0.0 0.00 0.00 0.00 68 1017.3
20260509132228 53 261 0.0 0.0 0.00 0.00 0.00 70 1017.4
20260509131725 53 255 0.0 0.0 0.00 0.00 0.00 69 1017.3
20260509131221 53 266 0.0 0.0 0.00 0.00 0.00 70 1016.9
20260509130717 53 266 0.0 0.0 0.00 0.00 0.00 70 1017.1
20260509130213 53 272 0.0 0.0 0.00 0.00 0.00 69 1016.9
20260509125710 53 269 1.0 1.0 0.00 0.00 0.00 70 1016.8
20260509125207 53 272 0.0 0.0 0.00 0.00 0.00 70 1016.8
20260509124703 53 262 1.0 1.0 0.00 0.00 0.00 71 1016.7
20260509124200 53 272 0.0 0.0 0.00 0.00 0.00 72 1016.5
20260509123659 53 284 2.0 2.0 0.00 0.00 0.00 70 1016.8
20260509123155 53 317 3.0 3.0 0.00 0.00 0.00 70 1016.7
20260509122650 53 310 1.0 2.0 0.00 0.00 0.00 71 1016.8
20260509122148 53 309 2.0 3.0 0.00 0.00 0.00 71 1016.6
20260509121644 53 316 3.0 3.0 0.00 0.00 0.00 71 1016.6
20260509121142 53 301 1.0 1.0 0.00 0.00 0.00 70 1016.7
20260509120640 53 334 2.0 2.0 0.00 0.00 0.00 69 1016.4
20260509120138 53 324 2.0 2.0 0.00 0.00 0.00 68 1016.4
20260509115635 53 301 2.0 2.0 0.00 0.00 0.00 68 1016.3
20260509115133 53 295 2.0 2.0 0.00 0.00 0.00 67 1016.3
20260509114631 53 320 2.0 3.0 0.00 0.00 0.00 69 1016.3
20260509114129 53 325 3.0 3.0 0.00 0.00 0.00 69 1016.1
20260509113627 53 345 3.0 3.0 0.00 0.00 0.00 69 1016.2
20260509113124 53 287 1.0 1.0 0.00 0.00 0.00 68 1016.1
20260509112621 53 298 2.0 2.0 0.00 0.00 0.00 68 1016.0
20260509112118 54 272 1.0 2.0 0.00 0.00 0.00 67 1016.0
20260509111615 54 312 2.0 2.0 0.00 0.00 0.00 66 1015.9
20260509111112 54 337 3.0 5.0 0.00 0.00 0.00 65 1015.5
20260509110609 54 302 1.0 2.0 0.00 0.00 0.00 65 1015.5
20260509110106 54 335 3.0 6.0 0.00 0.00 0.00 65 1015.6
20260509105604 54 353 5.0 7.0 0.00 0.00 0.00 66 1015.5
20260509105101 54 358 4.0 7.0 0.00 0.00 0.00 67 1015.3
20260509104558 54 347 4.0 7.0 0.00 0.00 0.00 67 1015.5
20260509104055 54 276 0.0 1.0 0.00 0.00 0.00 68 1015.4
20260509103553 54 281 1.0 3.0 0.00 0.00 0.00 68 1015.5
20260509103051 54 311 5.0 6.0 0.00 0.00 0.00 69 1015.4
20260509102548 54 348 2.0 2.0 0.00 0.00 0.00 68 1015.3
20260509102045 54 355 4.0 6.0 0.00 0.00 0.00 66 1015.3
20260509101541 54 344 3.0 5.0 0.00 0.00 0.00 65 1015.4
20260509101038 55 325 3.0 3.0 0.00 0.00 0.00 64 1015.2
20260509100535 55 244 2.0 3.0 0.00 0.00 0.00 64 1015.3
20260509100033 55 21 4.0 5.0 0.00 0.00 0.00 64 1015.3
20260509095529 55 318 3.0 3.0 0.00 0.00 0.00 64 1015.3
20260509095026 55 291 5.0 8.0 0.00 0.00 0.00 64 1015.0
20260509094522 55 316 2.0 3.0 0.00 0.00 0.00 63 1015.0
20260509094020 55 335 4.0 5.0 0.00 0.00 0.00 63 1014.9
20260509093518 55 355 3.0 6.0 0.00 0.00 0.00 63 1014.8
20260509093015 55 340 5.0 7.0 0.00 0.00 0.00 63 1014.5
20260509092513 55 325 4.0 7.0 0.00 0.00 0.00 63 1014.6
20260509092012 55 332 3.0 3.0 0.00 0.00 0.00 63 1014.8
20260509091509 55 340 3.0 3.0 0.00 0.00 0.00 63 1014.8
20260509091005 55 291 2.0 2.0 0.00 0.00 0.00 63 1014.6
20260509090502 54 352 4.0 5.0 0.00 0.00 0.00 63 1014.4
20260509090000 54 317 2.0 2.0 0.00 0.00 0.00 63 1014.4
20260509085457 54 348 3.0 3.0 0.00 0.00 0.00 63 1014.3
20260509084953 54 333 2.0 3.0 0.00 0.00 0.00 63 1014.4
20260509084450 54 346 4.0 5.0 0.00 0.00 0.00 63 1014.3
20260509083947 54 307 3.0 3.0 0.00 0.00 0.00 63 1014.0
20260509083444 55 312 1.0 2.0 0.00 0.00 0.00 62 1014.4
20260509082940 55 355 3.0 5.0 0.00 0.00 0.00 62 1014.3
20260509082438 55 356 4.0 6.0 0.00 0.00 0.00 62 1014.0
20260509081935 55 305 4.0 5.0 0.00 0.00 0.00 62 1014.1
20260509081427 55 317 3.0 6.0 0.00 0.00 0.00 62 1014.2
20260509080924 55 303 2.0 3.0 0.00 0.00 0.00 63 1014.2
20260509080422 55 298 2.0 2.0 0.00 0.00 0.00 63 1014.2
20260509075920 55 317 2.0 2.0 0.00 0.00 0.00 63 1013.9
20260509075416 55 300 1.0 1.0 0.00 0.00 0.00 62 1014.1
20260509074914 55 315 1.0 2.0 0.00 0.00 0.00 61 1014.2
20260509074412 55 340 2.0 2.0 0.00 0.00 0.00 61 1014.2
20260509073908 55 292 3.0 3.0 0.00 0.00 0.00 61 1014.1
20260509073404 56 327 3.0 5.0 0.00 0.00 0.00 60 1014.2
20260509072901 56 328 4.0 7.0 0.00 0.00 0.00 59 1014.0
20260509072357 56 317 1.0 2.0 0.00 0.00 0.00 60 1014.3
20260509071854 56 310 7.0 8.0 0.00 0.00 0.00 60 1014.1
20260509071351 56 346 3.0 5.0 0.00 0.00 0.00 59 1014.1
20260509070848 57 347 5.0 7.0 0.00 0.00 0.00 58 1014.0
20260509070345 57 356 6.0 7.0 0.00 0.00 0.00 58 1013.9
20260509065841 57 345 6.0 10.0 0.00 0.00 0.00 58 1014.0
20260509065337 57 321 6.0 8.0 0.00 0.00 0.00 57 1013.7
20260509064833 57 330 3.0 6.0 0.00 0.00 0.00 56 1014.0
20260509064331 57 315 4.0 7.0 0.00 0.00 0.00 55 1014.1
20260509063829 58 352 4.0 5.0 0.00 0.00 0.00 55 1013.9
20260509063324 57 338 4.0 6.0 0.00 0.00 0.00 56 1013.9
20260509062822 57 5 6.0 7.0 0.00 0.00 0.00 57 1013.9
20260509062319 57 356 5.0 6.0 0.00 0.00 0.00 57 1013.8
20260509061816 58 1 5.0 9.0 0.00 0.00 0.00 56 1013.6
20260509061314 58 312 2.0 3.0 0.00 0.00 0.00 56 1013.4
20260509060811 58 348 5.0 7.0 0.00 0.00 0.00 55 1013.3
20260509060308 58 310 6.0 9.0 0.00 0.00 0.00 55 1013.2
20260509055803 58 328 11.0 17.0 0.00 0.00 0.00 55 1013.3
20260509055259 58 320 2.0 3.0 0.00 0.00 0.00 56 1013.1
20260509054755 58 352 4.0 6.0 0.00 0.00 0.00 56 1013.0
20260509054252 59 346 3.0 3.0 0.00 0.00 0.00 55 1013.1
20260509053751 59 321 3.0 3.0 0.00 0.00 0.00 54 1013.0
20260509053248 59 331 5.0 7.0 0.00 0.00 0.00 54 1012.9
20260509052746 59 1 5.0 8.0 0.00 0.00 0.00 54 1012.9
20260509052243 60 318 4.0 6.0 0.00 0.00 0.00 53 1012.9
20260509051740 60 271 6.0 10.0 0.00 0.00 0.00 53 1012.6
20260509051239 60 335 6.0 9.0 0.00 0.00 0.00 52 1012.7
20260509050735 60 325 3.0 5.0 0.00 0.00 0.00 51 1012.7
20260509050231 61 298 8.0 13.0 0.00 0.00 0.00 50 1012.6
20260509045729 61 311 3.0 6.0 0.00 0.00 0.00 50 1012.5
20260509045225 61 306 5.0 6.0 0.00 0.00 0.00 49 1012.5
20260509044723 62 325 5.0 6.0 0.00 0.00 0.00 47 1012.5
20260509044220 62 285 5.0 6.0 0.00 0.00 0.00 45 1012.2
20260509043716 62 347 3.0 5.0 0.00 0.00 0.00 45 1012.1
20260509043213 63 326 1.0 2.0 0.00 0.00 0.00 43 1012.1
20260509042709 63 346 5.0 8.0 0.00 0.00 0.00 42 1012.2
20260509042205 63 288 1.0 1.0 0.00 0.00 0.00 41 1012.1
20260509041702 63 305 5.0 8.0 0.00 0.00 0.00 37 1012.2
20260509041200 61 304 1.0 1.0 0.00 0.00 0.00 38 1012.0
20260509040658 61 298 1.0 1.0 0.00 0.00 0.00 38 1012.0
20260509040154 61 258 0.0 1.0 0.00 0.00 0.00 37 1011.9
20260509035651 61 239 0.0 0.0 0.00 0.00 0.00 37 1011.6
20260509035148 60 235 3.0 3.0 0.00 0.00 0.00 38 1011.5
20260509034645 60 236 0.0 0.0 0.00 0.00 0.00 39 1011.6
20260509034142 61 241 0.0 0.0 0.00 0.00 0.00 40 1011.6
20260509033639 62 244 0.0 0.0 0.00 0.00 0.00 38 1011.6
20260509033136 63 239 0.0 0.0 0.00 0.00 0.00 37 1011.6
20260509032634 64 241 0.0 0.0 0.00 0.00 0.00 35 1011.3
20260509032130 66 239 0.0 1.0 0.00 0.00 0.00 32 1011.4
20260509031628 67 262 1.0 1.0 0.00 0.00 0.00 29 1011.3
20260509031125 67 299 8.0 15.0 0.00 0.00 0.00 30 1011.3
20260509030624 67 186 5.0 8.0 0.00 0.00 0.00 26 1011.0
20260509030120 68 8 3.0 5.0 0.00 0.00 0.00 26 1011.1
20260509025616 67 352 6.0 11.0 0.00 0.00 0.00 25 1011.0
20260509025112 67 275 1.0 1.0 0.00 0.00 0.00 28 1010.7
20260509024608 68 271 1.0 2.0 0.00 0.00 0.00 25 1010.6
20260509024104 68 318 3.0 3.0 0.00 0.00 0.00 25 1010.6
20260509023602 69 340 2.0 2.0 0.00 0.00 0.00 25 1010.5
20260509023059 69 290 1.0 2.0 0.00 0.00 0.00 23 1010.4
20260509022555 69 317 4.0 6.0 0.00 0.00 0.00 24 1010.5
20260509022053 69 311 5.0 10.0 0.00 0.00 0.00 24 1010.5
20260509021550 69 357 11.0 17.0 0.00 0.00 0.00 23 1010.5
20260509021047 67 298 1.0 1.0 0.00 0.00 0.00 28 1010.3
20260509020545 68 257 0.0 0.0 0.00 0.00 0.00 26 1010.2
20260509020041 69 272 1.0 2.0 0.00 0.00 0.00 23 1010.2
20260509015541 69 354 4.0 6.0 0.00 0.00 0.00 22 1009.9
20260509015037 69 354 2.0 2.0 0.00 0.00 0.00 23 1009.7
20260509014534 69 354 3.0 3.0 0.00 0.00 0.00 23 1009.6
20260509014030 70 344 4.0 6.0 0.00 0.00 0.00 23 1009.5
20260509013528 70 1 6.0 7.0 0.00 0.00 0.00 22 1009.7
20260509013023 71 19 6.0 7.0 0.00 0.00 0.00 22 1009.5
20260509012520 71 12 8.0 11.0 0.00 0.00 0.00 21 1009.5
20260509012016 71 356 5.0 8.0 0.00 0.00 0.00 21 1009.7
20260509011515 71 340 3.0 3.0 0.00 0.00 0.00 21 1009.7